DW9920 Weather Reports


time (UTC)temp
C
wind
direction
speed
KPH
gust
KPH
rain 1hr
cm
rain 24hr
cm
rain mn
cm
humidity
%
barometer
mb
20260508183016 18 247 1.6 14.5 0.00 0.00 0.00 44 1011.5
20260508181525 17 103 3.2 14.5 0.00 0.00 0.00 42 1011.7
20260508180011 17 97 0.0 14.5 0.00 0.00 0.00 41 1012.2
20260508174515 17 233 8.0 14.5 0.00 0.00 0.00 39 1012.3
20260508173010 17 152 3.2 12.9 0.00 0.00 0.00 43 1012.4
20260508171509 17 121 3.2 11.3 0.00 0.00 0.00 41 1012.6
20260508170011 17 207 1.6 9.7 0.00 0.00 0.00 43 1013.1
20260508164504 17 142 0.0 12.9 0.00 0.00 0.00 45 1013.5
20260508163001 16 188 4.8 11.3 0.00 0.00 0.00 45 1013.8
20260508161600 16 245 0.0 6.4 0.00 0.00 0.00 45 1013.9
20260508161500 16 255 1.6 6.4 0.00 0.00 0.00 44 1013.9
20260508160057 16 289 1.6 9.7 0.00 0.00 0.00 53 1014.1
20260508154556 15 101 0.0 11.3 0.00 0.00 0.00 59 1014.3
20260508153053 15 25 3.2 11.3 0.00 0.00 0.00 57 1014.4
20260508151559 14 271 0.0 4.8 0.00 0.00 0.00 60 1014.7
20260508150059 13 160 1.6 9.7 0.00 0.00 0.00 66 1014.7
20260508144603 12 169 0.0 4.8 0.00 0.00 0.00 72 1014.7
20260508143040 11 173 0.0 3.2 0.00 0.00 0.00 71 1014.7
20260508141537 9 249 0.0 3.2 0.00 0.00 0.00 57 1014.7
20260508140029 6 122 0.0 3.2 0.00 0.00 0.00 32 1014.7
20260508134535 6 174 0.0 4.8 0.00 0.00 0.00 34 1014.8
20260508133031 5 132 0.0 1.6 0.00 0.00 0.00 36 1014.9
20260508131524 4 138 0.0 3.2 0.00 0.00 0.00 37 1014.9
20260508130023 3 210 0.0 3.2 0.00 0.00 0.00 38 1014.9
20260508124520 3 215 0.0 3.2 0.00 0.00 0.00 39 1014.7
20260508123020 2 186 0.0 1.6 0.00 0.00 0.00 39 1014.7
20260508121520 2 131 0.0 1.6 0.00 0.00 0.00 40 1014.7
20260508120016 1 167 0.0 0.0 0.00 0.00 0.00 41 1014.5
20260508114515 1 141 0.0 1.6 0.00 0.00 0.00 42 1014.3
20260508113014 1 152 0.0 1.6 0.00 0.00 0.00 42 1014.2
20260508111514 0 117 0.0 0.0 0.00 0.00 0.00 43 1014.2
20260508110025 0 111 0.0 1.6 0.00 0.00 0.00 43 1014.0
20260508104509 0 240 0.0 0.0 0.00 0.00 0.00 43 1013.9
20260508103008 0 124 0.0 0.0 0.00 0.00 0.00 43 1013.7
20260508101505 0 124 0.0 0.0 0.00 0.00 0.00 44 1013.5
20260508100004 0 124 0.0 0.0 0.00 0.00 0.00 43 1013.4
20260508094501 0 124 0.0 0.0 0.00 0.00 0.00 43 1013.5
20260508093100 0 124 0.0 0.0 0.00 0.00 0.00 43 1013.4
20260508091610 1 124 0.0 0.0 0.00 0.00 0.00 43 1013.4
20260508090109 1 124 0.0 0.0 0.00 0.00 0.00 42 1013.2
20260508084555 1 124 0.0 1.6 0.00 0.00 0.00 42 1013.3
20260508083052 1 131 0.0 0.0 0.00 0.00 0.00 42 1013.0
20260508081601 1 131 0.0 0.0 0.00 0.00 0.00 42 1012.9
20260508080049 1 131 0.0 1.6 0.00 0.00 0.00 42 1012.9
20260508074549 1 124 0.0 0.0 0.00 0.00 0.00 42 1012.7
20260508073053 1 124 0.0 0.0 0.00 0.00 0.00 42 1012.7
20260508071554 2 124 0.0 1.6 0.00 0.00 0.00 42 1012.8
20260508070045 2 124 0.0 0.0 0.00 0.00 0.00 42 1012.6
20260508064541 2 124 0.0 0.0 0.00 0.00 0.00 42 1012.4
20260508063039 2 124 0.0 0.0 0.00 0.00 0.00 42 1012.5
20260508061538 2 124 0.0 0.0 0.00 0.00 0.00 41 1012.5
20260508060036 3 124 0.0 0.0 0.00 0.00 0.00 41 1012.7
20260508054534 3 131 0.0 0.0 0.00 0.00 0.00 44 1012.8
20260508053054 3 131 0.0 0.0 0.00 0.00 0.00 44 1012.8
20260508051529 3 131 0.0 0.0 0.00 0.00 0.00 43 1012.7
20260508050025 4 131 0.0 0.0 0.00 0.00 0.00 46 1012.5
20260508044523 4 131 0.0 0.0 0.00 0.00 0.00 46 1012.3
20260508043021 5 137 0.0 1.6 0.00 0.00 0.00 49 1012.1
20260508041524 5 131 0.0 1.6 0.00 0.00 0.00 50 1011.8
20260508040012 6 115 0.0 3.2 0.00 0.00 0.00 47 1011.7
20260508034512 6 116 1.6 1.6 0.00 0.00 0.00 47 1011.8
20260508033010 6 117 0.0 3.2 0.00 0.00 0.00 56 1011.8
20260508031509 6 134 0.0 0.0 0.00 0.00 0.00 54 1011.7
20260508030011 6 124 0.0 0.0 0.00 0.00 0.00 61 1011.5
20260508024507 6 148 0.0 1.6 0.00 0.00 0.00 64 1011.6
20260508023001 7 82 0.0 0.0 0.00 0.00 0.00 70 1011.2
20260508021559 7 342 0.0 0.0 0.00 0.00 0.00 72 1011.0
20260508020056 8 25 0.0 1.6 0.00 0.00 0.00 75 1010.8
20260508014554 9 5 0.0 1.6 0.00 0.00 0.00 76 1010.5
20260508013052 10 296 0.0 3.2 0.00 0.00 0.00 71 1010.2
20260508011556 10 326 1.6 3.2 0.00 0.00 0.00 73 1010.0
20260508010048 10 352 0.0 6.4 0.00 0.00 0.00 72 1009.9
20260508004555 10 297 0.0 1.6 0.00 0.00 0.00 75 1009.7
20260508003047 11 198 0.0 1.6 0.00 0.00 0.00 74 1009.6
20260508001550 12 324 0.0 1.6 0.00 0.00 0.00 68 1009.4
20260508000046 12 335 0.0 4.8 0.00 0.00 0.00 62 1009.3
20260507234546 13 19 1.6 8.0 0.00 0.00 0.00 60 1009.2
20260507233058 14 355 1.6 9.7 0.00 0.00 0.00 59 1009.1
20260507231544 15 316 0.0 6.4 0.00 0.00 0.00 59 1009.1
20260507230044 15 25 0.0 3.2 0.00 0.00 0.00 60 1009.0
20260507224553 14 164 0.0 11.3 0.00 0.00 0.00 62 1009.0
20260507223043 14 226 0.0 6.4 0.00 0.00 0.00 64 1008.9
20260507221542 15 200 0.0 14.5 0.00 0.00 0.00 61 1008.9
20260507220041 15 41 0.0 4.8 0.00 0.00 0.00 66 1008.7
20260507214541 13 222 0.0 6.4 0.00 0.00 0.00 67 1008.5
20260507213044 15 29 0.0 9.7 0.00 0.00 0.00 65 1008.4
20260507211538 15 319 0.0 3.2 0.00 0.00 0.00 65 1008.3
20260507210045 15 180 4.8 9.7 0.00 0.00 0.00 63 1008.4
20260507204535 13 20 4.8 9.7 0.00 0.00 0.00 65 1008.3
20260507203041 15 217 0.0 6.4 0.00 0.00 0.00 65 1008.2
20260507201634 14 30 0.0 4.8 0.00 0.00 0.00 66 1008.4
20260507200034 14 316 3.2 8.0 0.00 0.00 0.00 65 1008.5
20260507194554 14 162 1.6 9.7 0.00 0.00 0.00 65 1008.6
20260507193028 13 47 1.6 4.8 0.00 0.00 0.00 70 1008.9
20260507191531 12 162 0.0 4.8 0.00 0.00 0.00 71 1009.1
20260507190023 12 41 6.4 9.7 0.00 0.00 0.00 70 1009.0
20260507184523 13 98 1.6 4.8 0.00 0.00 0.00 68 1009.1